Regional Weather Roundup
Issued by NWS Jackson, KY

Home | Current Version | Previous Version | Graphics & Text | Print | Product List | Glossary On
Versions: 1 2 3 4 5 6 7 8 9 10 11 12 13 14 15 16 17 18 19 20 21 22 23 24 25 26 27 28 29 30 31 32 33 34 35 36 37 38 39 40 41 42 43 44 45 46 47 48 49 50
000
ASUS43 KJKL 221811
RWRJKL

EAST KENTUCKY HOURLY WEATHER ROUNDUP
NATIONAL WEATHER SERVICE JACKSON KY
200 PM EDT TUE JUL 22 2014

NOTE: "FAIR" INDICATES FEW OR NO CLOUDS BELOW 12,000 FEET WITH
NO SIGNIFICANT WEATHER AND/OR OBSTRUCTIONS TO VISIBILITY.

* THESE REPORTS ARE NOT UNDER NWS QUALITY CONTROL AND MAY NOT
  REPORT WEATHER SUCH AS PRECIPITATION AND FOG.

KYZ079-080-083-085-087-088-110-112-115-119-120-221900
...EASTERN KENTUCKY...

CITY           SKY/WX    TMP DP  RH WIND       PRES   REMARKS
JACKSON        MOSUNNY   83  67  58 CALM      30.14S
6HR MIN TEMP:  72; 6HR MAX TEMP:  86;

LONDON         PTSUNNY   87  70  56 SW8       30.13F HX  92
6HR MIN TEMP:  73; 6HR MAX TEMP:  88; 6HR PCP: TRACE;

SOMERSET*      PTSUNNY   82  68  61 NW5       30.13S
MONTICELLO*    MOSUNNY   88  72  58 CALM      30.13F HX  94
6HR MIN TEMP:  72; 6HR MAX TEMP:  88;

WILLIAMSBURG*  SUNNY     84  72  65 CALM      30.13F
MIDDLESBORO*   PTSUNNY   86  69  56 S5        30.13F
6HR MIN TEMP:  69; 6HR MAX TEMP:  86;

HARLAN APT*    PTCLDY    84  64  51 MISG      30.15F
HAZARD APT*    CLEAR     86  68  54 CALM      30.13F
BLACK MTN*       N/A     73  64  73 SW5         N/A
PIKEVILLE APT* SUNNY     84  70  61 SE3       30.14F
BIG SANDY*     PTCLDY    86  70  57 CALM      30.13F HX  90
6HR MIN TEMP:  73; 6HR MAX TEMP:  86;

MOREHEAD APT*    N/A     86  73  66 S6        30.13F HX  93
$$

KYZ035-036-041-042-044-050-067-078-099-221900
...CENTRAL KENTUCKY...

CITY           SKY/WX    TMP DP  RH WIND       PRES   REMARKS
MT STERLING*   PTSUNNY   88  72  58 NE3       30.12F HX  94
FLEMING/MASON* SUNNY     88  70  55 E3        30.11F HX  92
DANVILLE*      CLOUDY    88  72  58 SW3       30.12F HX  94
RICHMOND*      MOSUNNY   88  70  55 W3        30.11F HX  92
LEXINGTON      SUNNY     90  68  48 CALM      30.10F HX  94
6HR MIN TEMP:  73; 6HR MAX TEMP:  90;

FRANKFORT      PTSUNNY   88  70  55 NW6       30.09F HX  93
6HR MIN TEMP:  70; 6HR MAX TEMP:  88;

$$

KYZ091>093-OHZ055-061-077-WVZ005-015-034-035-042-221900
...SOUTHERN OHIO/WEST VIRGINIA...

CITY           SKY/WX    TMP DP  RH WIND       PRES   REMARKS
COVINGTON      MOSUNNY   89  65  44 SW8       30.09F HX  91
COLUMBUS       MOSUNNY   89  65  44 SW6       30.08F HX  91
DAYTON         MOSUNNY   87  66  49 SW12      30.09F
WILMINGTON     MOSUNNY   87  68  52 SW9       30.09F HX  90
HUNTINGTON     SUNNY     86  69  56 VRB7      30.09F HX  90
CHARLESTON     MOSUNNY   87  68  52 NE3       30.10F HX  90
PINEVILLE*     MOSUNNY   88  69  53 MISG      30.20F HX  92
BECKLEY        CLOUDY    82  63  52 S6        30.20F
BLUEFIELD      PTSUNNY   80  63  55 VRB7      30.23F
$$

VAZ002-007-008-TNZ017-027-036-066-071-221900
...SOUTHWEST VIRGINIA/EAST TENNESSEE...

CITY           SKY/WX    TMP DP  RH WIND       PRES   REMARKS
WISE*          MOSUNNY   82  61  47 E5        30.23S
JONESVILLE*    CLEAR     84  68  58 CALM      30.16F
ABINGDON*      PTSUNNY   84  63  49 E3        30.18F
BRISTOL        MOSUNNY   86  64  47 CALM      30.15F
KNOXVILLE      PTSUNNY   83  68  60 CALM      30.12F
OAK RIDGE      PTSUNNY   85  69  58 S6        30.13F
CROSSVILLE     PTSUNNY   80  66  62 CALM      30.18S
NASHVILLE      PTSUNNY   88  69  53 SW3       30.10F HX  92
$$

...KEY TO REMARKS...
VSB - VISIBILITY IN MILES
WCI - WIND CHILL INDEX
HX  - HEAT INDEX

$$



USA.gov is the U.S. government's official web portal to all federal, state and local government web resources and services.